Tracking 20040 objects as of 19-Nov-2019
Live streaming from Space Station
objects crossing your sky now

THORAD AGENA D DEB

Track THORAD AGENA D DEB now!
10-day predictions


NORAD ID: 4205
Int'l Code: 1969-082BU
Perigee: 760.9 km
Apogee: 861.6 km
Inclination: 70.1 °
Period: 101.0 minutes
Semi major axis: 7182 km
RCS: 0.0519 m2 (small)
Launch date: September 30, 1969
Source: United States (US)
Launch site: AIR FORCE WESTERN TEST RANGE (AFWTR)

Note: This is SATELLITE DEBRIS
aabbcc
Your satellite tracking list
Your tracking list is empty




NASA's NSSDC Master Catalog

Two Line Element Set (TLE):
1  4205U 69082BU  19322.85161240  .00000042  00000-0  40200-4 0  9996
2  4205  70.0585 115.8432 0070126 243.5579 115.8336 14.26294361759212
Source of the keplerian elements: AFSPC